Погода в Котельниче

Россия / Кировская область     58°18′12″N   48°20′51″E
темп.,
°C
ветер,
м/с
пор.,
м/с
влажн.,
%
обл.,
%
осадки,
мм/ч
давл.,
гПа
погр.,
м
25 января, пн
пн2500:00+1ю4898100 0.0 1019356
03:00+1ююз3998100 0.0 1020370
06:00+1ююз41098100 0.1 1019381
09:00+1ююз41099100 0.1 1020392
12:00+1ююз410100100 0.6 1020343
15:00+1ююз41098100 1.3 1021442
18:00+1ююз51095100 0.2 1022476
21:000ююз41095100 0.2 1022595
26 января, вт
вт2600:00−1ю5993100 0.0 1022606
03:00−2ююз41093100 0.0 1023617
06:00−3ю3895100 0.1 1022472
09:00−4ю4895100 0.1 1022421
12:00−3ю3794100 0.1 1022361
15:00−2ю3895100 0.2 1021484
18:00−1ю4996100 0.2 1021414
21:00−2ю41095100 0.3 1020384
27 января, ср
ср2700:00−4ю499499 0.0 1020545
03:00−3ю4993100 0.1 1019510
06:00−2ююв41195100 0.1 1018506
09:000ю61291100 0.1 1016837
12:00−1ю61296100 1.3 1015750
15:000ю61395100 3.4 1013738
18:00+2ю61596100 0.4 1012889
21:00+2ююз51396100 0.5 1012949
28 января, чт
чт2800:00+1юз41192100 0.0 1013697
03:00−1юз31090100 0.1 1013462
06:00−4зюз2394100 0.0 101483
09:00−3з1196100 0.1 101572
12:00−1в1197100 0.6 1016112
15:00−1вюв2399100 0.9 1016157
18:00−1ююв3697100 0.3 1017271
21:00−2ююв3795100 0.4 1016343
29 января, пт
пт2900:00−6юв3794100 0.0 1016240
03:00−6ююв3894100 0.0 1015300
06:00−7юв3995100 0.0 1015281
09:00−7юв4993100 0.0 1014327
12:00−6юв4891100 0.0 1013365
15:00−5юв3891100 0.0 1010428
18:00−6юв41093100 0.0 1009504
21:00−7юв3994100 0.1 1008474